TimeEDT,TemperatureF,Dew PointF,Humidity,Sea Level PressureIn,VisibilityMPH,Wind Direction,Wind SpeedMPH,Gust SpeedMPH,PrecipitationIn,Events,Conditions,WindDirDegrees,DateUTC
12:54 AM,72.0,57.0,59,29.56,10.0,WNW,11.5,-,N/A,,Clear,300,2013-06-14 04:54:00
1:54 AM,71.1,55.9,59,29.56,10.0,NW,13.8,-,N/A,,Clear,310,2013-06-14 05:54:00
2:54 AM,71.1,55.0,57,29.57,10.0,NW,12.7,-,N/A,,Scattered Clouds,310,2013-06-14 06:54:00
3:54 AM,70.0,55.0,59,29.58,10.0,NNW,12.7,19.6,N/A,,Mostly Cloudy,330,2013-06-14 07:54:00
4:54 AM,68.0,55.9,65,29.62,10.0,North,13.8,-,N/A,,Mostly Cloudy,350,2013-06-14 08:54:00
5:54 AM,66.0,55.0,68,29.65,10.0,North,6.9,-,N/A,,Overcast,350,2013-06-14 09:54:00
6:11 AM,66.0,54.0,65,29.66,10.0,North,10.4,17.3,N/A,,Overcast,360,2013-06-14 10:11:00
6:54 AM,64.0,53.1,67,29.68,10.0,North,12.7,-,N/A,,Overcast,360,2013-06-14 10:54:00
7:39 AM,63.0,51.1,65,29.71,10.0,NNE,16.1,23.0,N/A,,Overcast,20,2013-06-14 11:39:00
7:54 AM,63.0,52.0,67,29.72,10.0,North,13.8,23.0,N/A,,Overcast,10,2013-06-14 11:54:00
8:09 AM,63.0,51.1,65,29.74,10.0,North,10.4,21.9,N/A,,Overcast,360,2013-06-14 12:09:00
8:54 AM,63.0,52.0,67,29.75,10.0,North,10.4,23.0,N/A,,Overcast,360,2013-06-14 12:54:00
9:54 AM,64.9,52.0,63,29.76,10.0,North,13.8,21.9,N/A,,Mostly Cloudy,10,2013-06-14 13:54:00
10:40 AM,68.0,51.1,55,29.79,10.0,NNE,19.6,25.3,N/A,,Mostly Cloudy,20,2013-06-14 14:40:00
10:54 AM,66.0,50.0,56,29.79,10.0,North,17.3,27.6,N/A,,Mostly Cloudy,10,2013-06-14 14:54:00
11:02 AM,66.0,50.0,56,29.79,10.0,North,12.7,26.5,N/A,,Mostly Cloudy,10,2013-06-14 15:02:00
11:54 AM,66.9,51.1,57,29.82,10.0,North,10.4,21.9,N/A,,Mostly Cloudy,360,2013-06-14 15:54:00
12:12 PM,66.9,51.1,57,29.83,10.0,North,11.5,-,N/A,,Overcast,10,2013-06-14 16:12:00
12:27 PM,66.9,52.0,59,29.84,10.0,NNE,12.7,-,N/A,,Overcast,20,2013-06-14 16:27:00
12:54 PM,66.9,52.0,59,29.84,10.0,North,12.7,18.4,N/A,,Mostly Cloudy,10,2013-06-14 16:54:00
1:54 PM,70.0,52.0,53,29.86,10.0,NE,13.8,21.9,N/A,,Mostly Cloudy,40,2013-06-14 17:54:00
2:54 PM,71.1,51.1,49,29.87,10.0,NE,15.0,-,N/A,,Mostly Cloudy,40,2013-06-14 18:54:00
3:54 PM,72.0,48.0,43,29.88,10.0,NNE,11.5,-,N/A,,Mostly Cloudy,20,2013-06-14 19:54:00
4:54 PM,72.0,51.1,48,29.89,10.0,NNW,9.2,-,N/A,,Scattered Clouds,330,2013-06-14 20:54:00
5:54 PM,75.0,52.0,44,29.88,10.0,NW,4.6,-,N/A,,Partly Cloudy,320,2013-06-14 21:54:00
6:54 PM,73.9,52.0,46,29.88,10.0,NNW,5.8,-,N/A,,Clear,330,2013-06-14 22:54:00
7:54 PM,68.0,54.0,61,29.90,10.0,SSW,4.6,-,N/A,,Clear,200,2013-06-14 23:54:00
8:54 PM,64.9,55.9,73,29.91,10.0,North,-9999.0,-,N/A,,Partly Cloudy,0,2013-06-15 00:54:00
9:54 PM,64.0,55.0,73,29.93,10.0,SW,8.1,-,N/A,,Clear,230,2013-06-15 01:54:00
10:54 PM,66.9,54.0,63,29.94,10.0,West,6.9,-,N/A,,Mostly Cloudy,270,2013-06-15 02:54:00
11:54 PM,66.0,55.9,70,29.96,10.0,SE,5.8,-,N/A,,Scattered Clouds,130,2013-06-15 03:54:00